contact:dominique.lefevre@mio.osupytheas.fr, maurice.libes@osupytheas.fr, didier.mallarino@osupytheas.fr
Project:EMSO http://www.emso-fr.org/EMSO-France
Depth: 2436.0 m
Title:EMSO Ligure Ouest : Data MII capteur CSTAR
DateTime,Latitude,Longitude,Instrument_Serial,Reference_Counts,Signal_Counts,Corrected_Signal_raw_counts,Calculated_Beam_c_inverse_meters,Internal_thermistor_counts
DateTime,Latitude,Longitude,Instrument_Serial,Reference_Counts,Signal_Counts,Corrected_Signal_raw_counts,Calculated_Beam_c_inverse_meters,Internal_thermistor_counts
2019-07-07T00:01:50,42.805,6.029,CST-1368DR,8761,12256,15486,0.033,551
2019-07-07T00:04:51,42.805,6.029,CST-1368DR,8761,12253,15482,0.034,551
2019-07-07T00:07:53,42.805,6.029,CST-1368DR,8761,12257,15487,0.033,551
2019-07-07T00:10:54,42.805,6.029,CST-1368DR,8761,12255,15484,0.034,551
2019-07-07T00:13:55,42.805,6.029,CST-1368DR,8761,12252,15480,0.035,551
2019-07-07T00:16:57,42.805,6.029,CST-1368DR,8761,12256,15486,0.033,551
2019-07-07T00:19:58,42.805,6.029,CST-1368DR,8761,12255,15485,0.034,551
2019-07-07T00:23:00,42.805,6.029,CST-1368DR,8760,12252,15483,0.034,551
2019-07-07T00:26:01,42.805,6.029,CST-1368DR,8761,12258,15488,0.033,550
2019-07-07T00:29:02,42.805,6.029,CST-1368DR,8761,12255,15485,0.034,551
2019-07-07T00:32:04,42.805,6.029,CST-1368DR,8760,12257,15489,0.033,551
2019-07-07T00:35:05,42.805,6.029,CST-1368DR,8760,12257,15489,0.033,550
2019-07-07T00:38:07,42.805,6.029,CST-1368DR,8760,12254,15485,0.034,551
2019-07-07T00:41:08,42.805,6.029,CST-1368DR,8760,12256,15487,0.033,551
2019-07-07T00:44:10,42.805,6.029,CST-1368DR,8760,12254,15485,0.034,551
2019-07-07T00:47:11,42.805,6.029,CST-1368DR,8760,12256,15487,0.033,550
2019-07-07T00:50:12,42.805,6.029,CST-1368DR,8760,12255,15486,0.033,551
2019-07-07T00:53:14,42.805,6.029,CST-1368DR,8760,12256,15488,0.033,550
2019-07-07T00:56:15,42.805,6.029,CST-1368DR,8760,12254,15485,0.034,551
2019-07-07T00:59:17,42.805,6.029,CST-1368DR,8760,12255,15487,0.033,551
2019-07-07T01:02:18,42.805,6.029,CST-1368DR,8760,12257,15488,0.033,551
2019-07-07T01:05:19,42.805,6.029,CST-1368DR,8760,12256,15488,0.033,551
2019-07-07T01:08:21,42.805,6.029,CST-1368DR,8760,12252,15483,0.034,551
2019-07-07T01:11:22,42.805,6.029,CST-1368DR,8760,12247,15476,0.036,550
2019-07-07T01:14:24,42.805,6.029,CST-1368DR,8760,12254,15485,0.034,550
2019-07-07T01:17:25,42.805,6.029,CST-1368DR,8760,12252,15483,0.034,551
2019-07-07T01:20:26,42.805,6.029,CST-1368DR,8760,12254,15484,0.034,550
2019-07-07T01:23:28,42.805,6.029,CST-1368DR,8760,12256,15487,0.033,551
2019-07-07T01:26:29,42.805,6.029,CST-1368DR,8760,12256,15487,0.033,550
2019-07-07T01:29:31,42.805,6.029,CST-1368DR,8760,12255,15487,0.033,551
2019-07-07T01:32:32,42.805,6.029,CST-1368DR,8760,12255,15487,0.033,551
2019-07-07T01:35:33,42.805,6.029,CST-1368DR,8760,12253,15483,0.034,551
2019-07-07T01:38:35,42.805,6.029,CST-1368DR,8760,12255,15486,0.033,551
2019-07-07T01:41:36,42.805,6.029,CST-1368DR,8760,12254,15485,0.034,551
2019-07-07T01:44:38,42.805,6.029,CST-1368DR,8760,12254,15485,0.034,551
2019-07-07T01:47:39,42.805,6.029,CST-1368DR,8760,12254,15485,0.034,550
2019-07-07T01:50:41,42.805,6.029,CST-1368DR,8760,12254,15485,0.034,551
2019-07-07T01:53:42,42.805,6.029,CST-1368DR,8760,12256,15487,0.033,551
2019-07-07T01:56:43,42.805,6.029,CST-1368DR,8760,12254,15484,0.034,551
2019-07-07T01:59:45,42.805,6.029,CST-1368DR,8760,12257,15488,0.033,551
2019-07-07T02:02:46,42.805,6.029,CST-1368DR,8760,12249,15478,0.036,551
2019-07-07T02:05:48,42.805,6.029,CST-1368DR,8760,12256,15487,0.033,550
2019-07-07T02:08:49,42.805,6.029,CST-1368DR,8760,12254,15485,0.034,551
2019-07-07T02:11:50,42.805,6.029,CST-1368DR,8760,12255,15487,0.033,551
2019-07-07T02:14:52,42.805,6.029,CST-1368DR,8760,12255,15486,0.033,551
2019-07-07T02:17:53,42.805,6.029,CST-1368DR,8760,12255,15487,0.033,550
2019-07-07T02:20:55,42.805,6.029,CST-1368DR,8760,12256,15488,0.033,550
2019-07-07T02:23:56,42.805,6.029,CST-1368DR,8759,12256,15490,0.032,550
2019-07-07T02:26:57,42.805,6.029,CST-1368DR,8759,12255,15488,0.033,551
2019-07-07T02:29:59,42.805,6.029,CST-1368DR,8759,12255,15488,0.033,551
2019-07-07T02:33:00,42.805,6.029,CST-1368DR,8759,12257,15490,0.032,551
2019-07-07T02:36:02,42.805,6.029,CST-1368DR,8759,12256,15489,0.033,551
2019-07-07T02:39:03,42.805,6.029,CST-1368DR,8759,12256,15489,0.033,551
2019-07-07T02:42:04,42.805,6.029,CST-1368DR,8759,12255,15488,0.033,551
2019-07-07T02:45:06,42.805,6.029,CST-1368DR,8759,12253,15485,0.034,551
2019-07-07T02:48:07,42.805,6.029,CST-1368DR,8759,12255,15487,0.033,550
2019-07-07T02:51:09,42.805,6.029,CST-1368DR,8759,12253,15485,0.034,551
2019-07-07T02:54:10,42.805,6.029,CST-1368DR,8759,12255,15488,0.033,551
2019-07-07T02:57:12,42.805,6.029,CST-1368DR,8759,12252,15484,0.034,551
2019-07-07T03:00:13,42.805,6.029,CST-1368DR,8759,12255,15488,0.033,550
2019-07-07T03:03:14,42.805,6.029,CST-1368DR,8759,12256,15489,0.033,551
2019-07-07T03:06:16,42.805,6.029,CST-1368DR,8759,12257,15490,0.032,551
2019-07-07T03:09:17,42.805,6.029,CST-1368DR,8759,12255,15488,0.033,551
2019-07-07T03:12:19,42.805,6.029,CST-1368DR,8759,12253,15486,0.033,551
2019-07-07T03:15:20,42.805,6.029,CST-1368DR,8759,12253,15486,0.033,551
2019-07-07T03:18:21,42.805,6.029,CST-1368DR,8759,12254,15486,0.033,551
2019-07-07T03:21:23,42.805,6.029,CST-1368DR,8759,12252,15484,0.034,551
2019-07-07T03:24:24,42.805,6.029,CST-1368DR,8759,12246,15477,0.036,550
2019-07-07T03:27:26,42.805,6.029,CST-1368DR,8759,12251,15483,0.034,551
2019-07-07T03:30:27,42.805,6.029,CST-1368DR,8759,12252,15484,0.034,551
2019-07-07T03:33:28,42.805,6.029,CST-1368DR,8759,12254,15486,0.033,551
2019-07-07T03:36:30,42.805,6.029,CST-1368DR,8759,12253,15485,0.034,551
2019-07-07T03:39:31,42.805,6.029,CST-1368DR,8759,12255,15487,0.033,551
2019-07-07T03:42:33,42.805,6.029,CST-1368DR,8759,12253,15485,0.034,551
2019-07-07T03:45:34,42.805,6.029,CST-1368DR,8759,12254,15486,0.033,551
2019-07-07T03:48:35,42.805,6.029,CST-1368DR,8759,12253,15485,0.034,551
2019-07-07T03:51:37,42.805,6.029,CST-1368DR,8759,12249,15480,0.035,551
2019-07-07T03:54:38,42.805,6.029,CST-1368DR,8759,12253,15486,0.033,551
2019-07-07T03:57:40,42.805,6.029,CST-1368DR,8759,12254,15486,0.033,551
2019-07-07T04:00:41,42.805,6.029,CST-1368DR,8759,12254,15487,0.033,551
2019-07-07T04:03:43,42.805,6.029,CST-1368DR,8759,12254,15486,0.033,551
2019-07-07T04:06:44,42.805,6.029,CST-1368DR,8758,12253,15487,0.033,551
2019-07-07T04:09:45,42.805,6.029,CST-1368DR,8758,12251,15484,0.034,551
2019-07-07T04:12:47,42.805,6.029,CST-1368DR,8758,12252,15486,0.033,551
2019-07-07T04:15:48,42.805,6.029,CST-1368DR,8758,12249,15482,0.034,551
2019-07-07T04:18:50,42.805,6.029,CST-1368DR,8758,12254,15488,0.033,551
2019-07-07T04:21:51,42.805,6.029,CST-1368DR,8758,12250,15483,0.034,551
2019-07-07T04:24:52,42.805,6.029,CST-1368DR,8758,12251,15485,0.034,551
2019-07-07T04:27:54,42.805,6.029,CST-1368DR,8758,12251,15484,0.034,551
2019-07-07T04:30:55,42.805,6.029,CST-1368DR,8758,12249,15481,0.035,551
2019-07-07T04:33:57,42.805,6.029,CST-1368DR,8758,12246,15478,0.036,551
2019-07-07T04:36:58,42.805,6.029,CST-1368DR,8758,12254,15488,0.033,551
2019-07-07T04:39:59,42.805,6.029,CST-1368DR,8758,12254,15488,0.033,551
2019-07-07T04:43:01,42.805,6.029,CST-1368DR,8758,12253,15487,0.033,551
2019-07-07T04:46:02,42.805,6.029,CST-1368DR,8758,12251,15485,0.034,551
2019-07-07T04:49:04,42.805,6.029,CST-1368DR,8758,12253,15487,0.033,551
2019-07-07T04:52:05,42.805,6.029,CST-1368DR,8758,12253,15487,0.033,551
2019-07-07T04:55:07,42.805,6.029,CST-1368DR,8758,12253,15487,0.033,551
2019-07-07T04:58:08,42.805,6.029,CST-1368DR,8758,12253,15487,0.033,551
2019-07-07T05:01:09,42.805,6.029,CST-1368DR,8758,12252,15486,0.033,551
2019-07-07T05:04:11,42.805,6.029,CST-1368DR,8758,12248,15481,0.035,551
2019-07-07T05:07:12,42.805,6.029,CST-1368DR,8758,12233,15462,0.040,550
2019-07-07T05:10:14,42.805,6.029,CST-1368DR,8756,11954,15113,0.131,551
2019-07-07T05:13:15,42.805,6.029,CST-1368DR,8758,12251,15485,0.034,551
2019-07-07T05:16:16,42.805,6.029,CST-1368DR,8758,12253,15487,0.033,551
2019-07-07T05:19:18,42.805,6.029,CST-1368DR,8758,12253,15487,0.033,550
2019-07-07T05:22:19,42.805,6.029,CST-1368DR,8758,12249,15482,0.034,551
2019-07-07T05:25:21,42.805,6.029,CST-1368DR,8758,12253,15487,0.033,550
2019-07-07T05:28:22,42.805,6.029,CST-1368DR,8758,12253,15487,0.033,551
2019-07-07T05:31:23,42.805,6.029,CST-1368DR,8758,12252,15486,0.033,551
2019-07-07T05:34:25,42.805,6.029,CST-1368DR,8758,12253,15487,0.033,551
2019-07-07T05:37:26,42.805,6.029,CST-1368DR,8758,12237,15466,0.039,551
2019-07-07T05:40:28,42.805,6.029,CST-1368DR,8758,12248,15481,0.035,551
2019-07-07T05:43:29,42.805,6.029,CST-1368DR,8758,12250,15483,0.034,551
2019-07-07T05:46:30,42.805,6.029,CST-1368DR,8758,12252,15486,0.033,551
2019-07-07T05:49:32,42.805,6.029,CST-1368DR,8757,12250,15485,0.034,551
2019-07-07T05:52:33,42.805,6.029,CST-1368DR,8758,12248,15481,0.035,551
2019-07-07T05:55:35,42.805,6.029,CST-1368DR,8757,12253,15488,0.033,551
2019-07-07T05:58:36,42.805,6.029,CST-1368DR,8757,12253,15488,0.033,551
2019-07-07T06:01:38,42.805,6.029,CST-1368DR,8757,12253,15488,0.033,551
2019-07-07T06:04:39,42.805,6.029,CST-1368DR,8757,12251,15486,0.033,551
2019-07-07T06:07:40,42.805,6.029,CST-1368DR,8757,12246,15480,0.035,551
2019-07-07T06:10:42,42.805,6.029,CST-1368DR,8757,12251,15486,0.033,551
2019-07-07T06:13:43,42.805,6.029,CST-1368DR,8757,12250,15484,0.034,551
2019-07-07T06:16:45,42.805,6.029,CST-1368DR,8757,12243,15476,0.036,551
2019-07-07T06:19:46,42.805,6.029,CST-1368DR,8757,12243,15476,0.036,551
2019-07-07T06:22:47,42.805,6.029,CST-1368DR,8757,12246,15479,0.035,551
2019-07-07T06:25:49,42.805,6.029,CST-1368DR,8757,12251,15486,0.033,551
2019-07-07T06:28:50,42.805,6.029,CST-1368DR,8757,12248,15483,0.034,550
2019-07-07T06:31:52,42.805,6.029,CST-1368DR,8757,12252,15487,0.033,551
2019-07-07T06:34:53,42.805,6.029,CST-1368DR,8757,12251,15486,0.033,551
2019-07-07T06:37:54,42.805,6.029,CST-1368DR,8757,12249,15484,0.034,550
2019-07-07T06:40:56,42.805,6.029,CST-1368DR,8757,12253,15488,0.033,551
2019-07-07T06:43:57,42.805,6.029,CST-1368DR,8757,12250,15485,0.034,551
2019-07-07T06:46:59,42.805,6.029,CST-1368DR,8757,12248,15482,0.034,551
2019-07-07T06:50:00,42.805,6.029,CST-1368DR,8757,12248,15482,0.034,551
2019-07-07T06:53:01,42.805,6.029,CST-1368DR,8757,12250,15485,0.034,551
2019-07-07T06:56:03,42.805,6.029,CST-1368DR,8757,12250,15485,0.034,551
2019-07-07T06:59:04,42.805,6.029,CST-1368DR,8757,12247,15481,0.035,551
2019-07-07T07:02:06,42.805,6.029,CST-1368DR,8757,12245,15479,0.035,551
2019-07-07T07:05:07,42.805,6.029,CST-1368DR,8757,12246,15480,0.035,550
2019-07-07T07:08:09,42.805,6.029,CST-1368DR,8754,11982,15150,0.121,551
2019-07-07T07:11:10,42.805,6.029,CST-1368DR,8757,12249,15483,0.034,551
2019-07-07T07:14:11,42.805,6.029,CST-1368DR,8757,12248,15482,0.034,551
2019-07-07T07:17:13,42.805,6.029,CST-1368DR,8757,12249,15484,0.034,551
2019-07-07T07:20:14,42.805,6.029,CST-1368DR,8757,12249,15483,0.034,551
2019-07-07T07:23:16,42.805,6.029,CST-1368DR,8757,12250,15484,0.034,551
2019-07-07T07:26:17,42.805,6.029,CST-1368DR,8757,12250,15485,0.034,551
2019-07-07T07:29:18,42.805,6.029,CST-1368DR,8757,12250,15484,0.034,551
2019-07-07T07:32:20,42.805,6.029,CST-1368DR,8756,12249,15485,0.034,551
2019-07-07T07:35:21,42.805,6.029,CST-1368DR,8756,12246,15481,0.035,551
2019-07-07T07:38:23,42.805,6.029,CST-1368DR,8756,12249,15486,0.033,551
2019-07-07T07:41:24,42.805,6.029,CST-1368DR,8757,12248,15483,0.034,551
2019-07-07T07:44:25,42.805,6.029,CST-1368DR,8756,12250,15486,0.033,551
2019-07-07T07:47:27,42.805,6.029,CST-1368DR,8756,12250,15486,0.033,551
2019-07-07T07:50:28,42.805,6.029,CST-1368DR,8756,12246,15481,0.035,551
2019-07-07T07:53:30,42.805,6.029,CST-1368DR,8756,12247,15482,0.034,551
2019-07-07T07:56:31,42.805,6.029,CST-1368DR,8757,12250,15485,0.034,550
2019-07-07T07:59:32,42.805,6.029,CST-1368DR,8757,12251,15486,0.033,551
2019-07-07T08:02:34,42.805,6.029,CST-1368DR,8756,12250,15486,0.033,551
2019-07-07T08:05:35,42.805,6.029,CST-1368DR,8756,12250,15487,0.033,551
2019-07-07T08:08:37,42.805,6.029,CST-1368DR,8756,12250,15487,0.033,551
2019-07-07T08:11:38,42.805,6.029,CST-1368DR,8756,12250,15487,0.033,551
2019-07-07T08:14:40,42.805,6.029,CST-1368DR,8756,12251,15488,0.033,551
2019-07-07T08:17:41,42.805,6.029,CST-1368DR,8756,12249,15485,0.034,551
2019-07-07T08:20:42,42.805,6.029,CST-1368DR,8756,12251,15488,0.033,551
2019-07-07T08:23:44,42.805,6.029,CST-1368DR,8756,12252,15488,0.033,551
2019-07-07T08:26:45,42.805,6.029,CST-1368DR,8756,12245,15480,0.035,551
2019-07-07T08:29:47,42.805,6.029,CST-1368DR,8756,12251,15487,0.033,551
2019-07-07T08:32:48,42.805,6.029,CST-1368DR,8756,12250,15486,0.033,551
2019-07-07T08:35:49,42.805,6.029,CST-1368DR,8756,12250,15486,0.033,551
2019-07-07T08:38:51,42.805,6.029,CST-1368DR,8756,12249,15486,0.033,550
2019-07-07T08:41:52,42.805,6.029,CST-1368DR,8756,12250,15487,0.033,550
2019-07-07T08:44:54,42.805,6.029,CST-1368DR,8756,12247,15482,0.034,551
2019-07-07T08:47:55,42.805,6.029,CST-1368DR,8756,12249,15485,0.034,551
2019-07-07T08:50:56,42.805,6.029,CST-1368DR,8756,12248,15484,0.034,551
2019-07-07T08:53:58,42.805,6.029,CST-1368DR,8756,12243,15478,0.036,551
2019-07-07T08:56:59,42.805,6.029,CST-1368DR,8756,12246,15481,0.035,551
2019-07-07T09:00:01,42.805,6.029,CST-1368DR,8756,12248,15484,0.034,551
2019-07-07T09:03:02,42.805,6.029,CST-1368DR,8756,12249,15486,0.033,551
2019-07-07T09:06:04,42.805,6.029,CST-1368DR,8756,12244,15478,0.036,551
2019-07-07T09:09:05,42.805,6.029,CST-1368DR,8756,12247,15482,0.034,551
2019-07-07T09:12:06,42.805,6.029,CST-1368DR,8756,12249,15485,0.034,550
2019-07-07T09:15:08,42.805,6.029,CST-1368DR,8756,12247,15482,0.034,551
2019-07-07T09:18:09,42.805,6.029,CST-1368DR,8756,12246,15481,0.035,550
2019-07-07T09:21:11,42.805,6.029,CST-1368DR,8756,12248,15484,0.034,551
2019-07-07T09:24:12,42.805,6.029,CST-1368DR,8755,12242,15477,0.036,551
2019-07-07T09:27:13,42.805,6.029,CST-1368DR,8755,12249,15487,0.033,551
2019-07-07T09:30:15,42.805,6.029,CST-1368DR,8755,12249,15486,0.033,551
2019-07-07T09:33:16,42.805,6.029,CST-1368DR,8755,12248,15485,0.034,551
2019-07-07T09:36:18,42.805,6.029,CST-1368DR,8755,12245,15482,0.034,551
2019-07-07T09:39:19,42.805,6.029,CST-1368DR,8755,12249,15487,0.033,551
2019-07-07T09:42:20,42.805,6.029,CST-1368DR,8755,12247,15484,0.034,551
2019-07-07T09:45:22,42.805,6.029,CST-1368DR,8755,12248,15486,0.033,551
2019-07-07T09:48:23,42.805,6.029,CST-1368DR,8755,12249,15487,0.033,551
2019-07-07T09:51:25,42.805,6.029,CST-1368DR,8755,12249,15487,0.033,551
2019-07-07T09:54:26,42.805,6.029,CST-1368DR,8755,12246,15482,0.034,550
2019-07-07T09:57:27,42.805,6.029,CST-1368DR,8755,12247,15484,0.034,551
2019-07-07T10:00:29,42.805,6.029,CST-1368DR,8755,12242,15478,0.036,551
2019-07-07T10:03:30,42.805,6.029,CST-1368DR,8755,12247,15484,0.034,551
2019-07-07T10:06:32,42.805,6.029,CST-1368DR,8755,12242,15478,0.036,551
2019-07-07T10:09:33,42.805,6.029,CST-1368DR,8755,12247,15484,0.034,551
2019-07-07T10:12:35,42.805,6.029,CST-1368DR,8755,12246,15483,0.034,551
2019-07-07T10:15:36,42.805,6.029,CST-1368DR,8755,12246,15483,0.034,551
2019-07-07T10:18:37,42.805,6.029,CST-1368DR,8755,12248,15485,0.034,551
2019-07-07T10:21:39,42.805,6.029,CST-1368DR,8755,12247,15484,0.034,551
2019-07-07T10:24:40,42.805,6.029,CST-1368DR,8755,12248,15486,0.033,551
2019-07-07T10:27:42,42.805,6.029,CST-1368DR,8755,12245,15481,0.035,551
2019-07-07T10:30:43,42.805,6.029,CST-1368DR,8755,12245,15482,0.034,551
2019-07-07T10:33:44,42.805,6.029,CST-1368DR,8755,12249,15487,0.033,551
2019-07-07T10:36:46,42.805,6.029,CST-1368DR,8755,12249,15486,0.033,550
2019-07-07T10:39:47,42.805,6.029,CST-1368DR,8755,12249,15487,0.033,551
2019-07-07T10:42:49,42.805,6.029,CST-1368DR,8755,12248,15486,0.033,551
2019-07-07T10:45:50,42.805,6.029,CST-1368DR,8755,12248,15486,0.033,551
2019-07-07T10:48:51,42.805,6.029,CST-1368DR,8755,12247,15484,0.034,551
2019-07-07T10:51:53,42.805,6.029,CST-1368DR,8755,12243,15479,0.035,551
2019-07-07T10:54:54,42.805,6.029,CST-1368DR,8755,12247,15484,0.034,551
2019-07-07T10:57:56,42.805,6.029,CST-1368DR,8755,12242,15478,0.036,551
2019-07-07T11:00:57,42.805,6.029,CST-1368DR,8755,12248,15485,0.034,550
2019-07-07T11:03:58,42.805,6.029,CST-1368DR,8755,12247,15484,0.034,551
2019-07-07T11:07:00,42.805,6.029,CST-1368DR,8755,12247,15484,0.034,551
2019-07-07T11:10:01,42.805,6.029,CST-1368DR,8754,12245,15483,0.034,551
2019-07-07T11:13:03,42.805,6.029,CST-1368DR,8755,12246,15483,0.034,551
2019-07-07T11:16:04,42.805,6.029,CST-1368DR,8754,12245,15483,0.034,551
2019-07-07T11:19:06,42.805,6.029,CST-1368DR,8754,12249,15488,0.033,550
2019-07-07T11:22:07,42.805,6.029,CST-1368DR,8755,12246,15482,0.034,551
2019-07-07T11:25:08,42.805,6.029,CST-1368DR,8754,12249,15488,0.033,550
2019-07-07T11:28:10,42.805,6.029,CST-1368DR,8754,12248,15488,0.033,551
2019-07-07T11:31:11,42.805,6.029,CST-1368DR,8754,12248,15487,0.033,551
2019-07-07T11:34:13,42.805,6.029,CST-1368DR,8754,12248,15488,0.033,551
2019-07-07T11:37:14,42.805,6.029,CST-1368DR,8754,12249,15488,0.033,551
2019-07-07T11:40:15,42.805,6.029,CST-1368DR,8754,12246,15485,0.034,551
2019-07-07T11:43:17,42.805,6.029,CST-1368DR,8754,12247,15486,0.033,551
2019-07-07T11:46:18,42.805,6.029,CST-1368DR,8754,12247,15486,0.033,551
2019-07-07T11:49:20,42.805,6.029,CST-1368DR,8754,12246,15485,0.034,550
2019-07-07T11:52:21,42.805,6.029,CST-1368DR,8754,12246,15484,0.034,551
2019-07-07T11:55:22,42.805,6.029,CST-1368DR,8754,12248,15487,0.033,551
2019-07-07T11:58:24,42.805,6.029,CST-1368DR,8754,12247,15486,0.033,551
2019-07-07T12:01:25,42.805,6.029,CST-1368DR,8754,12249,15489,0.033,550
2019-07-07T12:04:27,42.805,6.029,CST-1368DR,8754,12240,15476,0.036,551
2019-07-07T12:07:28,42.805,6.029,CST-1368DR,8754,12248,15487,0.033,551
2019-07-07T12:10:29,42.805,6.029,CST-1368DR,8754,12242,15480,0.035,551
2019-07-07T12:13:31,42.805,6.029,CST-1368DR,8754,12247,15486,0.033,551
2019-07-07T12:16:32,42.805,6.029,CST-1368DR,8754,12247,15486,0.033,550
2019-07-07T12:19:34,42.805,6.029,CST-1368DR,8754,12244,15482,0.034,551
2019-07-07T12:22:35,42.805,6.029,CST-1368DR,8754,12246,15485,0.034,550
2019-07-07T12:25:37,42.805,6.029,CST-1368DR,8754,12246,15485,0.034,551
2019-07-07T12:28:38,42.805,6.029,CST-1368DR,8754,12247,15485,0.034,551
2019-07-07T12:31:39,42.805,6.029,CST-1368DR,8754,12245,15483,0.034,551
2019-07-07T12:34:41,42.805,6.029,CST-1368DR,8754,12245,15483,0.034,550
2019-07-07T12:37:42,42.805,6.029,CST-1368DR,8754,12246,15484,0.034,551
2019-07-07T12:40:44,42.805,6.029,CST-1368DR,8754,12243,15481,0.035,551
2019-07-07T12:43:45,42.805,6.029,CST-1368DR,8753,12246,15487,0.033,551
2019-07-07T12:46:46,42.805,6.029,CST-1368DR,8753,12246,15486,0.033,551
2019-07-07T12:49:48,42.805,6.029,CST-1368DR,8753,12245,15485,0.034,551
2019-07-07T12:52:49,42.805,6.029,CST-1368DR,8754,12248,15487,0.033,551
2019-07-07T12:55:51,42.805,6.029,CST-1368DR,8753,12246,15486,0.033,551
2019-07-07T12:58:52,42.805,6.029,CST-1368DR,8753,12246,15487,0.033,551
2019-07-07T13:01:53,42.805,6.029,CST-1368DR,8753,12244,15484,0.034,551
2019-07-07T13:04:55,42.805,6.029,CST-1368DR,8753,12245,15485,0.034,551
2019-07-07T13:07:56,42.805,6.029,CST-1368DR,8753,12248,15488,0.033,551
2019-07-07T13:10:58,42.805,6.029,CST-1368DR,8753,12244,15484,0.034,550
2019-07-07T13:13:59,42.805,6.029,CST-1368DR,8753,12246,15486,0.033,551
2019-07-07T13:17:01,42.805,6.029,CST-1368DR,8753,12247,15487,0.033,551
2019-07-07T13:20:02,42.805,6.029,CST-1368DR,8753,12246,15486,0.033,550
2019-07-07T13:23:03,42.805,6.029,CST-1368DR,8753,12245,15485,0.034,551
2019-07-07T13:26:05,42.805,6.029,CST-1368DR,8753,12245,15485,0.034,551
2019-07-07T13:29:06,42.805,6.029,CST-1368DR,8753,12246,15486,0.033,550
2019-07-07T13:32:08,42.805,6.029,CST-1368DR,8753,12245,15485,0.034,551
2019-07-07T13:35:09,42.805,6.029,CST-1368DR,8753,12245,15484,0.034,551
2019-07-07T13:38:10,42.805,6.029,CST-1368DR,8753,12246,15486,0.033,551
2019-07-07T13:41:12,42.805,6.029,CST-1368DR,8753,12243,15483,0.034,551
2019-07-07T13:44:13,42.805,6.029,CST-1368DR,8753,12240,15479,0.035,551
2019-07-07T13:47:15,42.805,6.029,CST-1368DR,8753,12240,15479,0.035,550
2019-07-07T13:50:16,42.805,6.029,CST-1368DR,8753,12246,15486,0.033,551
2019-07-07T13:53:17,42.805,6.029,CST-1368DR,8753,12244,15484,0.034,551
2019-07-07T13:56:19,42.805,6.029,CST-1368DR,8753,12243,15483,0.034,551
2019-07-07T13:59:20,42.805,6.029,CST-1368DR,8753,12245,15485,0.034,551
2019-07-07T14:02:22,42.805,6.029,CST-1368DR,8753,12242,15482,0.034,551
2019-07-07T14:05:23,42.805,6.029,CST-1368DR,8753,12245,15485,0.034,551
2019-07-07T14:08:24,42.805,6.029,CST-1368DR,8753,12242,15481,0.035,551
2019-07-07T14:11:26,42.805,6.029,CST-1368DR,8753,12243,15482,0.034,551
2019-07-07T14:14:27,42.805,6.029,CST-1368DR,8753,12246,15486,0.033,551
2019-07-07T14:17:29,42.805,6.029,CST-1368DR,8753,12244,15484,0.034,551
2019-07-07T14:20:30,42.805,6.029,CST-1368DR,8753,12246,15487,0.033,551
2019-07-07T14:23:32,42.805,6.029,CST-1368DR,8753,12246,15486,0.033,551
2019-07-07T14:26:33,42.805,6.029,CST-1368DR,8753,12246,15486,0.033,551
2019-07-07T14:29:34,42.805,6.029,CST-1368DR,8752,12245,15486,0.033,551
2019-07-07T14:32:36,42.805,6.029,CST-1368DR,8752,12246,15487,0.033,551
2019-07-07T14:35:37,42.805,6.029,CST-1368DR,8753,12243,15483,0.034,551
2019-07-07T14:38:39,42.805,6.029,CST-1368DR,8752,12244,15485,0.034,550
2019-07-07T14:41:40,42.805,6.029,CST-1368DR,8752,12245,15487,0.033,550
2019-07-07T14:44:41,42.805,6.029,CST-1368DR,8752,12242,15483,0.034,551
2019-07-07T14:47:43,42.805,6.029,CST-1368DR,8752,12241,15482,0.034,551
2019-07-07T14:50:44,42.805,6.029,CST-1368DR,8752,12243,15484,0.034,551
2019-07-07T14:53:46,42.805,6.029,CST-1368DR,8752,12243,15484,0.034,551
2019-07-07T14:56:47,42.805,6.029,CST-1368DR,8752,12242,15483,0.034,551
2019-07-07T14:59:48,42.805,6.029,CST-1368DR,8752,12244,15486,0.033,551
2019-07-07T15:02:50,42.805,6.029,CST-1368DR,8752,12231,15469,0.038,551
2019-07-07T15:05:51,42.805,6.029,CST-1368DR,8752,12239,15478,0.036,550
2019-07-07T15:08:53,42.805,6.029,CST-1368DR,8752,12245,15486,0.033,551
2019-07-07T15:11:54,42.805,6.029,CST-1368DR,8752,12243,15484,0.034,551
2019-07-07T15:14:55,42.805,6.029,CST-1368DR,8752,12244,15485,0.034,551
2019-07-07T15:17:57,42.805,6.029,CST-1368DR,8752,12244,15485,0.034,551
2019-07-07T15:20:58,42.805,6.029,CST-1368DR,8752,12242,15483,0.034,551
2019-07-07T15:24:00,42.805,6.029,CST-1368DR,8752,12243,15484,0.034,551
2019-07-07T15:27:01,42.805,6.029,CST-1368DR,8752,12245,15486,0.033,551
2019-07-07T15:30:03,42.805,6.029,CST-1368DR,8752,12243,15484,0.034,550
2019-07-07T15:33:04,42.805,6.029,CST-1368DR,8752,12244,15486,0.033,551
2019-07-07T15:36:05,42.805,6.029,CST-1368DR,8752,12239,15479,0.035,550
2019-07-07T15:39:07,42.805,6.029,CST-1368DR,8752,12245,15486,0.033,551
2019-07-07T15:42:08,42.805,6.029,CST-1368DR,8752,12244,15485,0.034,551
2019-07-07T15:45:10,42.805,6.029,CST-1368DR,8752,12242,15483,0.034,551
2019-07-07T15:48:11,42.805,6.029,CST-1368DR,8752,12244,15485,0.034,551
2019-07-07T15:51:12,42.805,6.029,CST-1368DR,8752,12242,15483,0.034,551
2019-07-07T15:54:14,42.805,6.029,CST-1368DR,8752,12244,15485,0.034,551
2019-07-07T15:57:15,42.805,6.029,CST-1368DR,8752,12241,15482,0.034,551
2019-07-07T16:00:17,42.805,6.029,CST-1368DR,8752,12239,15479,0.035,551
2019-07-07T16:03:18,42.805,6.029,CST-1368DR,8749,11722,14830,0.207,551
2019-07-07T16:06:19,42.805,6.029,CST-1368DR,8751,12240,15481,0.035,551
2019-07-07T16:09:21,42.805,6.029,CST-1368DR,8752,12237,15477,0.036,551
2019-07-07T16:12:22,42.805,6.029,CST-1368DR,8751,12237,15478,0.036,551
2019-07-07T16:15:24,42.805,6.029,CST-1368DR,8751,12236,15477,0.036,551
2019-07-07T16:18:25,42.805,6.029,CST-1368DR,8751,12228,15467,0.038,551
2019-07-07T16:21:26,42.805,6.029,CST-1368DR,8751,12239,15480,0.035,551
2019-07-07T16:24:28,42.805,6.029,CST-1368DR,8751,12238,15479,0.035,551
2019-07-07T16:27:29,42.805,6.029,CST-1368DR,8751,12243,15485,0.034,551
2019-07-07T16:30:31,42.805,6.029,CST-1368DR,8751,12236,15477,0.036,551
2019-07-07T16:33:32,42.805,6.029,CST-1368DR,8751,12240,15482,0.034,551
2019-07-07T16:36:34,42.805,6.029,CST-1368DR,8751,12242,15484,0.034,551